Location: Paddlesworth
(51.1000°N, 1.1333°E)
Time: 06:58:09
(UTC+00:00)

SL-27 R/B - Pass Details

Date: 11 May 2021
Orbit: 418 x 467 km, 74.7° (Epoch: 15 June)

Event Time Altitude Azimuth Distance (km) Brightness Sun altitude
Rises 22:48:09 0° 346° (NNW) 2,383 7.7 -19.4°
Reaches altitude 10° 22:50:31 10° 2° (N) 1,517 6.2 -19.5°
Maximum altitude 22:53:12 22° 56° (NE) 977 4.3 -19.6°
Enters shadow 22:54:05 20° 80° (E) 1,048 4.2 -19.6°
